User: anonymous   Login
Location: Unspecified
(0.0000°N, 0.0000°E)
Time: 22:46:42
(UTC+00:00)
Language:

Astrid - Orbit

View from above orbital plane
View from above orbital plane
View from above satellite
View from above satellite

Ground track
Ground track

The orbit data is extracted from the following two-line orbital elements,

1 23464U 95002B   17113.68849605 +.00000093 +00000-0 +84191-4 0  9993
2 23464 082.9268 329.6207 0042253 071.5791 288.9950 13.72519639113889
Epoch (UTC): 23 April 2017 16:31:26
Eccentricity: 0.0042253
inclination: 82.9268°
perigee height: 959 km
apogee height: 1021 km
right ascension of ascending node: 329.6207°
argument of perigee: 71.5791°
revolutions per day: 13.72519639
mean anomaly at epoch: 288.9950°
orbit number at epoch: 11388

The dashed part of the orbit path shows where the satellite is in the earth's shadow,  

DLR